CAPE
114 139 162 171 139 114 8 5 1 1 3 8 2 8 13 26 24 28 36 25 12 32 27 6 23 35 0 0 0 0 3 103 97 57 9 0 0 70 55 25 120 40 70 55 43 130 70
9 30 105 169 156 136 111 10 4 1 2 4 3 6 12 14 22 21 31 29 8 16 35 26 6 29 1 1 0 0 0 24 67 63 23 44 73 77 90 80 88 88 107 128 39 65 39
7 9 19 92 116 147 146 18 6 4 1 3 7 3 3 6 21 17 13 18 6 9 20 20 39 19 0 0 0 0 0 19 0 32 0 3 0 1 35 72 68 41 7 46 112 72 7
13 6 9 27 42 32 44 61 8 6 3 4 5 3 1 7 16 8 10 5 3 2 6 8 44 11 1 0 0 5 0 16 6 0 0 0 0 1 27 11 48 135 0 10 3 18 6
14 14 10 16 18 36 15 86 5 5 7 6 3 7 1 3 12 6 7 10 8 7 7 7 5 7 3 0 14 10 2 2 46 3 1 0 0 23 0 10 39 18 4 2 1 1 45
26 18 20 24 31 16 26 31 41 6 8 8 7 6 0 0 5 4 4 3 0 1 0 0 0 6 1 22 5 23 0 0 22 20 7 13 2 22 12 7 19 9 0 1 4 4 29
40 44 23 23 32 55 31 43 24 17 9 8 4 0 0 0 5 1 0 0 0 0 0 0 0 5 12 0 0 10 0 5 29 23 5 5 6 0 0 1 2 0 0 0 0 0 7
36 32 46 55 26 34 54 44 37 39 10 11 5 2 0 0 0 0 0 0 0 0 0 0 0 0 0 0 0 0 3 9 13 22 1 6 10 0 0 1 10 26 13 26 2 0 16
37 28 54 61 47 43 38 56 53 24 9 11 7 7 0 0 0 0 0 0 0 0 0 0 0 0 0 0 0 1 15 16 15 6 3 0 2 6 22 1 10 3 0 0 50 32 36
39 39 34 48 72 56 85 68 44 46 11 9 13 3 0 0 0 0 0 0 0 0 0 0 0 0 0 0 0 7 0 15 4 21 18 0 0 0 9 4 5 8 0 0 0 7 7
33 33 35 36 45 56 47 78 72 33 44 12 11 4 0 0 0 0 0 0 0 0 0 0 0 0 9 0 0 0 16 5 35 6 0 10 3 20 3 4 0 0 0 2 0 1 0
47 48 57 39 48 59 54 38 31 66 44 11 14 4 0 1 0 0 0 0 0 0 0 0 0 0 0 4 1 0 1 0 2 3 7 14 2 0 0 0 0 1 23 5 0 0 1
69 74 34 62 70 82 58 38 90 89 55 13 10 1 0 0 0 0 0 0 0 0 0 0 0 1 0 0 0 0 0 0 0 0 0 0 0 0 0 0 0 0 0 0 0 0 0
49 83 73 74 105 101 20 52 71 70 59 18 11 0 0 0 0 0 0 0 0 0 0 0 0 0 0 0 0 0 0 0 0 0 0 0 1 0 0 0 0 0 0 0 0 0 0
96 109 103 117 152 152 108 51 103 59 47 21 16 0 0 0 0 0 0 0 0 0 0 1 0 0 0 0 0 0 0 0 0 0 0 0 0 0 0 0 0 0 0 0 0 0 0
97 108 139 151 169 107 77 23 37 52 8 26 0 0 0 0 0 0 0 0 0 0 0 2 0 0 0 0 0 0 0 0 0 0 0 0 0 0 0 0 0 0 0 0 0 0 0
87 110 186 139 166 56 65 11 50 55 22 42 11 1 1 0 0 11 0 0 0 0 3 0 8 0 0 0 0 0 0 0 0 0 0 0 0 0 0 0 0 0 0 0 0 0 0
100 128 206 280 246 103 75 14 49 41 40 50 29 2 2 0 1 6 1 0 0 0 0 0 0 1 0 0 0 0 0 0 0 0 0 0 0 0 0 0 0 0 0 0 0 0 0
79 114 248 385 277 153 102 19 54 69 16 4 22 7 2 8 4 3 0 0 2 0 0 0 0 2 0 0 0 2 0 0 0 0 0 0 0 0 0 0 0 0 0 0 0 0 0
122 169 268 370 240 163 79 27 71 66 25 7 10 1 12 24 0 0 0 1 1 0 0 0 0 0 1 3 0 0 5 1 0 0 0 0 0 0 0 0 0 0 0 0 0 0 0
147 221 185 184 174 120 65 39 41 33 8 6 4 3 0 5 5 0 0 0 6 3 0 0 0 0 0 0 0 0 3 11 8 0 0 0 0 0 0 0 0 0 0 0 0 0 0
142 203 151 142 125 95 30 45 8 61 38 7 14 0 0 0 0 0 0 0 2 0 0 0 0 0 0 0 0 0 0 4 1 0 0 0 0 0 0 0 0 0 0 0 0 0 0
119 175 125 97 94 76 47 26 20 62 33 1 0 0 0 0 0 0 0 0 12 0 0 0 0 0 0 0 0 0 0 0 0 0 0 0 0 0 0 0 0 0 0 0 0 0 0
151 123 107 119 104 84 63 32 18 32 22 0 0 0 0 0 0 0 0 0 5 0 0 0 0 0 0 0 0 0 0 0 0 0 0 0 0 0 0 0 0 0 0 0 0 0 0
95 111 103 98 62 73 43 39 61 36 42 0 0 0 0 0 0 0 0 0 2 1 0 0 0 0 0 0 0 0 0 0 0 0 0 0 0 1 0 0 0 0 0 0 0 0 0
101 118 96 76 77 24 21 14 6 40 45 2 0 0 0 0 0 0 0 0 0 0 0 0 0 0 0 0 0 0 0 0 0 0 0 0 0 0 0 0 0 0 0 0 0 0 0
90 92 75 62 47 27 26 7 26 24 35 0 0 0 0 0 0 0 0 0 0 0 0 0 0 0 0 0 0 0 0 0 0 0 0 0 1 0 0 0 0 0 0 0 0 0 0
82 80 64 54 45 46 17 48 42 52 43 0 0 0 0 0 0 0 0 0 0 0 0 0 0 0 0 0 0 0 0 0 0 0 0 0 0 0 0 0 0 0 0 0 0 0 0
61 62 64 65 28 24 17 81 40 6 4 0 0 0 0 0 0 0 0 0 0 0 0 0 0 0 0 0 0 0 0 0 0 0 0 0 0 0 0 0 0 0 0 0 0 0 0
CIN
-211 -161 -111 -70 -62 0 0 0 -0 0 -0 0 -0 0 0 -0 -0 -0 -2 -2 -0 0 0 -0 0 0 0 0 0 0 -4 -13 -20 -12 -4 0 0 -3 -4 -14 -5 -67 -3 -30 -102 -80 -143
0 -27 -204 -124 -84 -71 -50 0 0 0 0 0 0 -0 -0 0 0 0 -0 -1 0 0 -0 -0 0 -0 -2 0 0 0 0 -16 -14 -14 -7 -2 -17 -4 -11 -17 -7 -8 -21 -24 -48 -8 -101
0 0 -53 -161 -148 -105 -72 -23 0 0 0 0 0 0 0 -0 0 -0 0 -0 -0 -0 0 0 0 -0 0 0 0 0 0 -19 0 -17 0 -12 0 -3 -15 -16 -27 -14 -14 -22 -4 -5 -38
0 0 0 0 -19 -8 -62 -135 0 0 0 0 0 -0 -0 0 0 0 0 0 -0 -0 0 -0 0 -2 0 0 0 -19 -2 -19 -23 -2 0 0 0 -1 -23 -25 -24 -9 0 -1 0 -4 -1
0 0 0 0 0 -26 -18 -95 -4 0 0 0 -0 0 -0 0 0 -0 -0 -0 0 -0 0 -0 -1 -4 -0 -0 -2 -29 -50 -7 -9 -20 -6 0 0 -6 0 -1 -5 -13 0 0 0 -7 0
0 0 0 0 0 0 -7 -17 -6 0 0 -0 -0 0 0 0 -0 -0 -0 0 0 -0 0 0 0 -0 -2 -3 -15 -8 -10 0 -4 -10 -2 -6 -47 -5 0 -1 -1 -0 0 -0 0 0 0
0 0 0 0 0 0 0 -38 0 -11 0 -0 0 -0 -0 0 0 0 -0 0 0 0 0 0 0 -12 -14 0 -0 -2 0 -8 -2 -2 0 -7 0 0 0 0 -13 0 0 0 0 0 0
0 0 0 0 0 0 0 0 0 0 0 0 -0 -0 0 0 0 0 0 0 0 0 0 0 0 0 0 0 0 0 -2 -0 0 -5 0 -1 -0 -0 0 -0 -1 -13 -50 -28 0 0 0
0 0 0 0 0 0 0 0 0 0 0 0 -0 -0 0 0 0 0 0 0 0 0 0 0 0 0 0 0 0 0 -2 -0 0 -1 -2 0 0 -1 0 0 -4 -8 0 -0 -1 0 -1
0 0 0 0 0 0 0 0 0 0 0 0 0 -0 0 0 0 0 0 0 0 0 0 0 0 0 0 0 -4 -7 -1 0 -4 -0 -22 -0 0 -2 -2 -0 -18 -18 0 0 0 0 0
0 0 0 0 0 0 0 0 0 0 0 0 -0 -0 0 0 0 0 0 0 0 0 0 0 0 0 -18 0 0 0 -9 -8 -6 -1 0 -3 0 -4 0 -0 0 0 -4 -2 -8 -3 0
0 0 0 0 0 0 0 -0 -1 0 0 0 -0 0 0 -1 0 0 0 0 0 0 0 0 -2 0 0 -14 -3 0 -9 0 -12 -0 -1 -1 -30 0 0 0 -22 -15 -9 -6 0 0 -6
0 -0 -0 0 0 0 0 -5 0 0 0 0 -0 0 -0 0 0 0 0 0 0 0 0 0 0 -15 0 -2 0 0 0 0 0 0 0 -5 -7 0 0 0 0 0 0 0 0 0 0
0 -0 0 0 0 0 -6 -1 -0 0 0 0 0 -0 0 0 0 0 0 0 0 0 0 0 0 0 0 0 0 0 0 0 0 0 0 -0 -6 0 0 0 0 0 0 0 0 0 0
0 -0 0 -0 -0 0 0 0 -2 0 -0 0 -0 0 0 0 0 0 0 0 0 0 0 -4 -0 0 0 0 0 0 0 0 0 0 0 0 0 0 0 0 0 0 0 0 0 0 0
0 -0 0 -0 0 -0 -0 -4 -3 -8 0 0 0 0 0 0 0 0 0 0 0 0 0 -6 0 0 0 0 0 0 0 0 0 0 0 0 0 0 0 0 0 0 0 0 0 0 0
-0 0 0 0 0 -1 -7 0 0 0 0 0 -4 0 -1 0 0 -5 -0 0 0 0 -21 -0 -13 -5 -0 0 0 0 0 0 0 0 0 0 0 0 0 0 0 0 0 0 0 0 0
0 -0 0 0 0 -3 0 0 0 0 0 0 -4 -0 -3 0 -1 -10 -1 0 0 0 0 0 -0 -14 0 0 0 -0 0 0 0 0 0 0 0 0 0 0 0 0 0 0 0 0 0
-0 0 0 0 0 -2 0 0 -0 0 -0 -15 -0 -1 -3 -11 0 -1 0 -1 -14 0 0 0 0 -5 -2 0 0 -6 -6 0 0 0 0 0 0 0 0 0 0 0 0 0 0 0 0
0 0 0 0 0 -0 0 0 0 -2 -1 -10 -1 0 -0 0 0 0 0 -1 -5 0 0 0 0 0 -9 -14 0 -4 -20 -21 0 0 0 0 0 0 0 0 0 0 0 0 0 0 0
0 0 -0 0 0 0 0 0 0 0 -2 -4 -4 0 0 -0 -0 0 0 0 -10 -9 -5 0 0 0 0 0 0 0 -13 -12 -25 -9 0 0 0 0 0 0 0 0 0 0 0 0 0
0 0 0 0 0 0 0 0 -0 0 0 -6 -0 0 0 0 0 0 0 0 -7 -12 0 0 0 0 0 0 0 0 0 -10 -23 0 0 0 0 0 0 0 0 0 0 0 0 0 0
0 0 0 0 0 -0 0 0 0 0 0 -9 0 0 0 0 0 0 0 0 -7 -6 0 0 0 0 0 0 0 0 0 0 0 0 0 0 0 0 0 0 0 0 0 0 0 0 0
0 0 0 0 0 0 0 0 0 -0 -3 0 0 0 0 0 0 0 0 0 -14 -3 0 0 0 0 0 0 0 0 0 0 0 0 0 0 0 0 0 0 0 0 0 0 0 0 0
0 0 0 0 -0 -0 0 0 0 -1 0 0 0 0 0 0 0 0 0 0 -71 -11 -12 0 0 0 0 0 0 0 0 0 0 0 0 0 0 0 0 0 0 0 0 0 0 0 0
0 0 -0 -0 0 0 0 0 0 0 0 -0 0 0 0 0 0 0 0 0 0 0 0 0 0 0 0 0 0 0 0 0 0 0 0 0 0 0 0 0 0 0 0 0 0 0 0
0 0 0 -0 0 0 -0 -17 0 0 0 -0 0 0 0 0 0 0 0 0 0 0 0 0 0 0 0 0 0 0 0 0 0 0 0 0 -4 0 0 0 0 0 0 0 0 0 0
0 0 -0 0 -0 0 0 -0 0 0 -0 0 0 0 0 0 0 0 0 0 0 0 0 0 0 0 0 0 0 0 0 0 0 0 0 0 0 0 0 -1 -1 0 0 0 0 0 0
-0 -0 0 -0 -0 0 0 0 0 0 -0 0 0 0 0 0 0 0 0 0 0 0 0 0 0 0 0 0 0 0 0 0 0 0 0 0 0 0 0 0 0 0 0 0 0 0 0
Wind_Speed
24 22 21 19 19 20 19 16 15 15 13 14 12 11 12 13 14 13 11 10 13 13 9 11 12 11 5 2 6 2 6 3 3 1 4 6 14 8 13 7 7 13 11 8 3 8 5
29 28 26 24 22 20 20 17 17 16 13 14 12 11 10 12 13 12 13 12 13 12 12 9 11 8 1 5 3 4 4 2 2 1 2 6 3 4 8 6 7 7 3 10 11 3 6
29 30 30 26 24 25 24 18 18 17 14 13 14 9 9 11 13 11 14 15 13 12 12 11 11 3 3 11 1 5 5 1 0 1 2 0 6 7 7 4 4 10 6 6 7 4 4
29 29 30 30 30 26 28 19 16 17 16 15 13 10 7 10 12 12 15 13 12 10 11 10 10 0 6 2 2 4 7 0 3 2 2 1 3 5 4 5 3 9 5 6 6 2 4
28 30 30 30 30 30 28 19 18 19 16 15 11 10 5 9 11 11 13 14 12 11 10 9 2 3 5 5 6 5 4 5 1 2 2 1 1 2 5 3 4 0 5 8 4 2 8
28 29 30 29 30 30 29 27 21 21 16 14 12 10 3 7 10 11 13 17 10 6 4 3 4 5 4 4 3 4 4 6 4 3 3 0 2 1 6 3 10 6 7 7 6 3 7
27 28 29 29 30 30 30 29 30 19 16 13 12 7 2 6 8 10 7 4 4 3 1 6 4 4 2 2 1 3 3 4 3 3 3 1 3 7 9 7 5 8 11 9 6 6 3
29 29 29 29 31 31 30 28 27 22 15 12 11 7 5 3 7 7 2 1 3 3 4 7 8 1 2 2 2 3 1 3 2 3 3 3 4 5 7 8 7 10 16 7 5 5 3
30 30 29 28 29 33 31 29 26 29 17 14 12 8 5 1 5 2 2 3 3 3 1 4 3 3 3 4 3 2 2 1 4 4 3 4 3 5 9 16 11 9 11 8 5 12 8
30 30 30 28 29 32 31 28 24 29 15 14 13 10 6 4 1 2 3 3 3 3 5 4 1 2 3 3 3 6 7 3 3 3 4 4 3 6 9 5 2 7 10 10 10 3 5
31 32 30 30 28 30 32 31 24 23 17 16 12 10 8 6 3 3 3 3 4 4 4 5 1 3 1 2 3 3 6 4 5 3 1 2 6 8 9 5 6 6 15 16 13 5 4
28 30 30 31 30 30 30 31 33 21 18 15 13 10 7 3 3 3 3 4 4 7 5 3 2 2 2 4 3 3 2 2 4 6 5 2 1 4 2 5 3 20 14 6 3 2 4
27 29 28 29 30 29 31 33 32 26 16 17 15 13 8 5 4 6 4 3 6 5 3 3 4 3 3 1 1 1 2 3 2 4 5 8 6 6 6 7 8 18 7 3 3 3 5
27 28 28 30 30 28 28 32 33 22 15 18 14 12 8 3 5 6 3 5 4 5 6 4 4 2 1 3 1 2 1 4 4 4 4 3 3 7 9 5 2 2 4 4 4 3 3
28 27 28 29 30 30 29 33 33 30 16 18 13 2 3 3 5 4 5 3 8 7 6 10 6 3 2 2 2 2 1 2 0 2 5 4 3 4 1 2 1 4 6 2 7 4 4
29 28 28 30 30 31 30 32 35 28 27 22 4 4 3 6 5 3 4 6 4 4 6 11 6 7 5 3 2 1 2 1 2 3 3 5 5 3 4 1 3 4 2 4 4 3 3
28 30 30 30 30 30 30 32 33 14 19 20 1 3 3 7 3 1 5 7 5 4 3 6 5 5 3 5 4 2 2 2 1 1 1 5 5 4 3 5 2 4 3 4 5 3 4
29 30 31 29 29 29 30 31 31 27 20 14 2 2 7 5 3 3 5 5 4 5 1 3 4 2 6 8 3 4 4 3 3 3 2 2 5 3 1 2 0 0 0 4 5 3 2
30 31 31 28 29 29 30 31 32 36 31 5 2 3 3 2 5 5 4 6 2 4 5 5 5 2 5 6 6 4 4 3 1 3 3 1 2 3 6 6 3 2 3 2 4 3 3
31 32 30 28 29 28 29 31 35 22 33 3 3 5 3 3 1 4 4 9 4 4 4 4 3 3 5 3 2 6 3 3 3 3 5 3 3 5 6 5 3 3 4 4 5 4 4
31 31 32 30 29 27 28 34 33 19 39 6 3 3 5 8 9 7 5 7 5 5 1 5 2 3 4 4 3 3 4 2 4 4 4 3 3 3 0 1 2 1 3 5 7 5 6
30 31 31 30 30 30 29 34 31 20 30 2 4 5 2 3 9 13 5 5 9 4 5 3 4 5 4 4 5 7 7 3 4 3 2 2 1 3 4 4 4 3 5 4 5 2 5
31 31 31 31 29 27 30 32 34 29 23 2 1 2 4 7 5 8 5 5 12 10 1 5 6 6 7 6 3 5 4 6 7 7 4 4 5 3 2 3 3 6 8 9 4 4 6
31 30 31 30 27 26 26 29 17 32 17 2 2 1 3 3 6 7 8 4 12 6 7 3 5 6 3 3 4 7 9 7 5 2 4 6 4 3 1 3 1 6 1 3 7 3 4
31 29 31 29 26 26 27 28 23 25 22 3 2 2 2 4 3 4 2 5 7 6 5 4 4 2 4 5 5 4 4 3 3 4 3 5 4 4 4 3 6 3 3 4 4 1 4
30 29 28 27 25 31 33 33 21 28 28 3 1 2 1 6 1 3 3 6 6 5 4 3 4 2 5 4 3 4 5 4 4 2 3 4 4 4 3 3 5 4 1 2 3 2 5
30 29 27 26 23 32 33 9 16 25 23 3 2 3 2 5 4 4 3 4 4 5 5 3 2 3 3 2 3 3 3 5 5 7 5 4 3 5 4 2 6 5 2 2 6 6 2
29 27 25 23 22 27 28 17 25 23 20 6 1 3 3 4 4 5 5 3 3 3 5 4 4 3 3 3 3 3 3 5 4 5 6 6 6 4 2 2 8 4 4 7 6 3 5
27 25 22 21 23 26 19 22 25 21 18 8 3 1 4 7 3 1 3 4 4 1 5 4 3 2 3 5 1 3 2 1 4 4 2 3 7 6 7 6 3 2 4 2 5 5 4
Wind_Direction
340 316 307 297 289 282 252 249 256 260 272 281 290 296 304 312 313 315 311 307 310 307 292 306 310 331 349 336 255 298 340 339 332 144 189 135 274 207 193 186 169 202 206 173 114 13 317
353 350 337 315 304 301 266 241 249 251 256 267 275 292 308 321 313 317 317 308 309 296 308 308 305 335 321 279 268 291 312 333 39 33 212 161 190 300 242 192 197 170 260 138 151 307 323
346 345 345 337 330 314 308 242 243 252 250 254 270 284 306 312 311 313 315 307 305 297 301 306 301 296 260 247 64 340 332 1 94 294 276 40 32 360 330 139 184 149 121 110 159 107 298
342 341 339 339 338 340 327 244 236 251 250 254 262 268 302 313 306 314 312 304 301 291 289 288 296 54 251 291 269 30 331 133 96 13 318 158 81 281 274 307 97 140 54 106 37 15 331
341 338 337 334 333 335 335 275 238 242 246 250 254 270 302 312 308 318 312 307 293 290 274 276 290 202 270 10 340 326 343 347 113 300 293 280 196 266 69 352 107 206 100 86 64 42 279
338 338 336 334 329 329 331 339 256 239 234 245 252 264 262 301 303 317 309 303 277 267 293 241 246 277 222 278 301 312 256 286 276 323 1 196 33 329 131 283 182 143 109 123 90 317 155
342 337 335 335 332 325 323 325 340 237 231 230 247 248 270 301 309 316 337 342 46 13 273 210 218 227 306 300 353 205 285 259 204 240 167 19 173 190 196 247 318 118 121 117 153 347 27
338 337 334 330 330 325 323 319 322 297 218 218 238 224 250 296 306 316 26 241 139 194 315 242 247 181 196 172 350 4 205 271 277 139 145 146 137 201 178 220 236 138 121 76 100 182 283
338 336 333 332 332 329 323 318 323 329 211 209 221 228 211 159 315 11 206 239 127 108 209 284 176 202 217 174 182 125 241 208 251 119 207 129 100 221 164 224 153 125 125 117 152 179 209
338 332 332 331 329 333 330 320 324 336 221 202 217 204 178 136 52 167 235 181 105 100 68 275 264 260 160 240 284 163 198 274 41 138 74 56 349 295 123 117 179 120 141 121 107 218 171
332 332 334 332 330 334 332 326 312 312 247 213 198 206 170 190 118 160 193 158 95 63 56 271 208 133 140 243 291 257 145 242 84 119 85 133 214 178 115 171 216 148 158 161 155 174 143
331 332 331 333 332 330 328 326 323 303 260 198 193 191 173 173 118 230 136 82 64 46 264 249 145 230 203 183 248 282 214 150 246 44 59 123 199 79 170 247 239 130 106 69 62 106 29
328 327 334 330 329 324 330 340 326 296 253 189 189 178 165 160 160 145 114 66 48 131 277 245 199 202 208 280 127 279 30 14 64 88 10 23 17 344 26 32 48 114 114 105 81 35 165
326 327 331 329 325 323 327 321 315 297 254 179 181 178 200 140 131 119 80 58 114 205 199 213 122 102 323 20 29 127 55 29 30 91 61 77 58 9 340 55 61 100 247 126 124 161 163
326 326 329 325 322 328 328 323 320 302 225 162 169 179 157 115 125 96 87 95 201 208 177 154 132 145 272 300 181 66 174 122 249 119 119 107 21 322 31 329 118 289 36 60 94 18 76
324 324 324 323 325 328 324 323 320 288 155 166 160 180 132 135 118 98 96 242 213 206 138 146 172 200 186 210 138 71 166 301 159 183 172 188 85 14 305 328 15 104 163 50 359 134 147
320 319 321 323 325 324 318 326 322 13 150 170 143 138 118 130 87 180 211 232 220 190 163 143 190 173 153 181 158 168 170 313 129 340 28 138 95 301 22 19 5 12 52 67 117 101 142
314 314 316 320 321 317 315 324 314 318 182 199 195 125 147 148 156 191 214 224 234 156 142 136 131 192 155 162 135 222 174 143 184 176 74 49 124 106 63 252 198 69 229 104 111 253 40
309 310 311 314 314 312 314 324 313 310 182 142 176 124 123 155 188 205 246 228 183 142 168 158 175 183 150 159 143 204 119 332 25 54 104 182 14 70 358 354 4 187 200 113 88 65 200
308 308 307 309 310 309 318 324 309 291 186 149 171 129 133 205 149 186 205 191 197 171 151 147 134 140 123 122 160 170 108 41 65 85 53 99 115 147 176 208 174 204 196 155 120 108 186
308 308 308 310 308 311 326 318 313 235 173 165 195 174 174 180 196 208 178 199 182 148 167 149 125 148 144 149 97 90 107 104 45 45 39 73 101 85 76 71 111 247 244 186 191 180 162
309 309 309 309 310 317 330 316 315 190 188 98 181 145 168 161 140 184 219 220 172 149 128 182 145 180 161 128 172 171 139 166 178 81 86 35 115 85 8 0 29 319 291 261 242 195 245
308 309 309 307 310 323 324 319 322 173 200 108 289 292 125 143 139 149 205 207 177 123 91 163 167 113 109 142 107 152 155 168 158 143 140 113 122 91 267 339 355 311 225 209 209 200 194
307 310 309 310 316 321 319 320 295 169 179 110 269 247 114 141 154 183 175 200 153 139 126 39 110 109 172 127 103 60 60 77 96 126 138 128 100 96 186 29 303 240 230 210 211 240 244
307 311 308 309 314 316 322 305 290 188 173 103 279 326 122 113 146 210 177 123 89 82 78 80 30 110 140 70 87 53 358 55 44 25 69 130 119 136 148 202 295 296 220 180 168 3 329
309 310 309 312 324 325 313 303 287 173 186 125 26 289 41 121 25 329 129 146 127 109 52 54 18 39 69 85 92 144 181 180 191 109 27 98 92 118 156 166 223 247 129 117 103 318 6
309 308 311 315 330 316 314 251 171 171 189 122 346 330 56 100 1 352 114 138 114 89 97 116 139 62 40 92 108 149 220 168 160 163 179 140 152 181 205 208 283 245 167 56 94 222 152
307 307 310 316 322 311 326 180 157 167 163 115 260 304 106 94 21 360 14 65 63 86 135 184 85 346 49 91 129 194 150 213 126 171 174 168 157 195 161 154 262 193 72 161 186 150 160
304 304 308 311 317 317 318 159 150 145 144 111 90 340 56 76 122 17 96 58 34 89 123 38 135 112 157 96 124 117 143 84 145 211 108 200 183 184 177 214 253 293 159 81 154 147 178